Regional Weather Roundup
Issued by NWS

Home | Current Version | Previous Version | Graphics & Text | Print | Product List | Glossary On
Versions: 1 2 3 4 5 6 7 8 9 10 11 12 13 14 15 16 17 18 19 20 21 22 23 24 25 26 27 28 29 30 31 32 33 34 35 36 37 38 39 40 41 42 43 44 45 46 47 48 49 50
000
ASUS43 KDMX 041607
RWRIA

WEATHER ROUNDUP FOR IOWA
NATIONAL WEATHER SERVICE DES MOINES IA
1100 AM CDT FRI SEP 04 2015

NOTE: "FAIR" INDICATES FEW OR NO CLOUDS BELOW 12,000 FEET WITH NO
SIGNIFICANT WEATHER AND/OR OBSTRUCTIONS TO VISIBILITY.

* - THESE STATIONS ARE NOT NWS STATIONS...THUS NOT UNDER NWS
QUALITY CONTROL.  THEY ALSO DO NOT REPORT WEATHER SUCH
AS PRECIPITATION OR FOG.

IAZ001>003-012>014-020>022-031>034-043>046-041700-
   NORTHWEST IOWA

CITY           SKY/WX    TMP DP  RH WIND       PRES   REMARKS
CARROLL *      SUNNY     79  72  78 S14G21    29.93F HX  82
CHEROKEE *     CLOUDY    75  72  88 S10       29.89R
DENISON *      SUNNY     77  70  78 S13       29.90F
LE MARS *      SUNNY     75  70  83 S13G18    29.89R
ORANGE CITY *  SUNNY     75  68  78 S13       29.89R
SHELDON *      SUNNY     77  70  78 S8        29.89R
SIOUX CITY     LGT RAIN  73  67  81 S8        29.87R
SPENCER        PTSUNNY   82  69  64 SE13      29.90R HX  85
STORM LAKE *   SUNNY     75  70  83 S15       29.92S
$$

IAZ055>058-069>071-079>083-090>094-041700-
   SOUTHWEST IOWA

CITY           SKY/WX    TMP DP  RH WIND       PRES   REMARKS
ATLANTIC *     SUNNY     79  70  73 S9        29.95F HX  81
AUDUBON *      SUNNY     79  72  78 S9        29.96F HX  82
CLARINDA *     SUNNY     82  73  74 S8        29.98F HX  88
COUNCIL BLFS * SUNNY     81  70  69 S13       29.92F HX  84
CRESTON *      SUNNY     79  72  78 S12       30.00F HX  82
LAMONI         SUNNY     84  71  65 S10       30.00S HX  89
RED OAK *      SUNNY     82  72  69 S12       29.95F HX  87
SHENANDOAH *   SUNNY     84  72  65 S10       29.95F HX  89
$$

IAZ047>049-059>061-072>074-084-041700-
   CENTRAL IOWA

CITY           SKY/WX    TMP DP  RH WIND       PRES   REMARKS
AMES           SUNNY     84  70  62 S13       29.96F HX  88
ANKENY *       SUNNY     84  72  65 S9        29.96F HX  89
CHARITON *     SUNNY     84  72  65 SW13      30.00S HX  89
DES MOINES     PTSUNNY   85  70  60 S13       29.96F HX  89
GRINNELL*      SUNNY     82  70  65 S8        30.01S HX  86
KNOXVILLE *    SUNNY     84  70  61 SW14      29.98F HX  88
MARSHALLTOWN   SUNNY     82  71  69 S9        29.98S HX  86
PELLA *        SUNNY    N/A N/A N/A SW6       30.01S
PERRY *          N/A     84  72  65 SW10      29.96S HX  89
$$

IAZ004>006-015-016-023>025-035-036-041700-
   NORTH CENTRAL IOWA

CITY           SKY/WX    TMP DP  RH WIND       PRES   REMARKS
ALGONA *       SUNNY     82  72  69 S14       29.93S HX  87
CLARION *      SUNNY     82  72  69 S10       29.95S HX  87
ESTHERVILLE    MOSUNNY   78  70  76 S14       29.91S HX  80
FORT DODGE *   MOSUNNY   82  70  65 S12       29.94F HX  86
MASON CITY     SUNNY     82  73  74 S10       29.97F HX  87
FOREST CITY *  SUNNY     82  68  61 S9        29.95S HX  85
IOWA FALLS *     N/A     84  72  65 S9        29.98F HX  89
$$

IAZ007>011-017>019-026>030-037>042-050>054-066-041700-
   NORTHEAST IOWA

CITY           SKY/WX    TMP DP  RH WIND       PRES   REMARKS
CEDAR RAPIDS   SUNNY     83  73  72 SW7       30.01S HX  89
CHARLES CITY * SUNNY     81  75  83 SE8       29.98F HX  86
CLINTON *      MOSUNNY   81  72  74 CALM      30.04S HX  84
DECORAH *      SUNNY     77  72  83 SE6       30.01S
DUBUQUE        SUNNY     79  71  76 S6        30.04S HX  82
MONTICELLO *   MOSUNNY   82  73  74 CALM      30.01F HX  88
OELWEIN *      SUNNY     82  72  69 VRB5G12   30.01F HX  87
WATERLOO       SUNNY     84  71  65 SE8       29.97F HX  89
$$

IAZ064-065-067-068-078-041700-
   EAST CENTRAL IOWA

CITY           SKY/WX    TMP DP  RH WIND       PRES   REMARKS
DAVENPORT      SUNNY     84  71  65 CALM      30.02S HX  89
IOWA CITY      SUNNY     84  71  65 SW9       30.02S HX  89
MT. PLEASANT * SUNNY     90  66  45 SW6       30.02F HX  92
MUSCATINE *    SUNNY     88  70  55 VRB7      30.01S HX  92
QUAD CITIES    MOSUNNY   87  70  56 NW3       30.01S HX  92
$$

IAZ062-063-075>077-085>089-095>099-041700-
   SOUTHEAST IOWA

CITY           SKY/WX    TMP DP  RH WIND       PRES   REMARKS
BURLINGTON     SUNNY     87  73  62 SW7       30.02S HX  94
FAIRFIELD *    SUNNY     86  70  58 S7        30.02S HX  90
FORT MADISON * SUNNY     86  72  62 CALM      30.03S HX  92
KEOKUK *       SUNNY     86  72  62 VRB7      30.02S HX  92
OSKALOOSA *      N/A     86  70  58 SW12      30.01S HX  90
CENTERVILLE *  SUNNY     84  72  65 S10       30.03S HX  89
OTTUMWA        SUNNY     85  72  65 S7        29.99F HX  91
WASHINGTON *     N/A    N/A N/A N/A MISG        N/A
$$

ABBREVIATIONS USED IN REMARKS
   TC - TEMPERATURES IN CELSIUS
  WCI - WIND CHILL INDEX
   HX - HEAT INDEX
  VSB - VISIBILITY
$$



USA.gov is the U.S. government's official web portal to all federal, state and local government web resources and services.